COSMOS 2251 DEB, 35455

Orbit data source: Space-Track

COSMOS 2251 DEB, 35455 is space debris in LEO originally from a launch on Wed, 16 Jun 1993 UTC launched from the Plesetsk Missile And Space Complex (PKMTR). The debris from Iridium 33, an American commercial communications satellite, has been tracked extensively since its accidental collision with the defunct Russian satellite Cosmos 2251 in 2009. This event, occurring at high speed in low Earth orbit (LEO), generated thousands of pieces of space debris, significantly increasing the risk of further collisions. The Iridium 33 debris cloud has impacted space traffic management and orbital debris mitigation strategies, making it a subject of ongoing study in space situational awareness.

Loading next visibility...
Identifier
35455, 1993-036AKZ
Orbit
LEO
Country
Flag of CISCIS
Related business
Manufacturer
Unknown
Mission
Spacecraft
Bus & Motor
Unknown
Mass
Unknown
Launch date (UTC)
1993-06-16 (33 years ago)
Launch vehicle
Unknown
Launch site
Plesetsk Missile And Space Complex (PKMTR)
Object type
Payload
Rocket body
Debris
Shape & HBR
Unknown shape, 0.1 m
Radar Cross Section
Small (<0.1 m²)

Expand to show TLE details & history
Last TLE update: 2 days ago

TLE from 2 days ago
0 COSMOS 2251 DEB
1 35455U 93036AKZ 26069.83737897  .00003630  00000-0  88030-3 0  9992
2 35455  74.0266 129.2959 0101416 213.8804 145.5853 14.50214224878206
Epoch: 2026-03-10T20:05Z
TLE epoch observation values (Epoch: 2026-03-10T20:05:49.543Z)
Latitude
-0.00002°
Longitude
19.32923°
Altitude
787.245 km
Speed
7.429 km/s
True Right ascension
08h 37m 11s
True Declination
0° 00' 00"
Sunlit
Object was in full shadow at epoch
Visualization orbit readout
Latitude
Unknown
Longitude
Unknown
Altitude
Unknown
Speed
Unknown
Apparent Right ascension
Unknown
Apparent Declination
Unknown
Sunlit
N/A
Visualization observer readout
Local Sidereal Time
19:35:57
Azimuth
Unknown
Elevation
Unknown
Doppler factor
Unknown
Orbital elements
Apogee altitude
794.57 km
Perigee altitude
650.545 km
Semi-major axis
7,100.695 km
Eccentricity
0.01014
Inclination
74.0266°
RAAN
129.2959°
Arg. of periapsis
213.8804°
True anomaly
146.2353°
Mean anomaly
145.5853°
Eccentric anomaly
145.91098°
Mean motion
3.62737 °/min
Orbital period
99.25 mins
BSTAR
0.0008803
Loading maneuver chart data...
Computing Atmospheric mass density...

Documentation

Showing up to 5 results
|